Tracking 18794 objects as of 21-September-2017
HD Live streaming from Space Station
objects crossing your sky now

CZ-4B DEB

Track CZ-4B DEB now!
10-day predictions


NORAD ID: 36290
Int'l Code: 2008-053L
Perigee: 566.2 km
Apogee: 593.4 km
Inclination: 97.6 °
Period: 96.1 minutes
Semi major axis: 6950 km
RCS: 0.0218 m2 (small)
Launch date: October 25, 2008
Source: People's Republic of China (PRC)
Launch site: Taiyaun Space Center, China (TSC)

Note: This is SATELLITE DEBRIS
aabbcc
Your satellite tracking list
Your tracking list is empty





NASA's NSSDC Master Catalog

Two Line Element Set (TLE):
1 36290U 08053L   17262.18594937  .00000876  00000-0  78585-4 0  9998
2 36290  97.6014 248.4636 0019601 212.5922 147.4092 14.98141057464182
Source of the keplerian elements: AFSPC